TimePDT,TemperatureF,Dew PointF,Humidity,Sea Level PressureIn,VisibilityMPH,Wind Direction,Wind SpeedMPH,Gust SpeedMPH,PrecipitationIn,Events,Conditions,WindDirDegrees,DateUTC
12:56 AM,60.1,53.1,78,29.98,10.0,Calm,Calm,-,N/A,,Clear,0,2013-09-04 07:56:00
1:56 AM,59.0,52.0,78,29.98,10.0,Calm,Calm,-,N/A,,Clear,0,2013-09-04 08:56:00
2:56 AM,57.9,53.1,84,29.99,10.0,Calm,Calm,-,N/A,,Clear,0,2013-09-04 09:56:00
3:56 AM,57.9,53.1,84,29.99,10.0,West,3.5,-,N/A,,Clear,280,2013-09-04 10:56:00
4:56 AM,55.0,51.1,86,29.99,10.0,Calm,Calm,-,N/A,,Clear,0,2013-09-04 11:56:00
5:56 AM,54.0,50.0,86,30.00,10.0,Calm,Calm,-,N/A,,Clear,0,2013-09-04 12:56:00
6:56 AM,53.1,50.0,89,30.02,10.0,Calm,Calm,-,N/A,,Partly Cloudy,0,2013-09-04 13:56:00
7:56 AM,57.0,52.0,83,30.03,10.0,Calm,Calm,-,N/A,,Clear,0,2013-09-04 14:56:00
8:56 AM,64.0,54.0,70,30.03,10.0,North,4.6,-,N/A,,Clear,10,2013-09-04 15:56:00
9:56 AM,66.9,54.0,63,30.03,10.0,Variable,4.6,-,N/A,,Clear,0,2013-09-04 16:56:00
10:56 AM,71.1,53.1,53,30.03,10.0,Calm,Calm,-,N/A,,Clear,0,2013-09-04 17:56:00
11:56 AM,78.1,51.1,39,30.01,10.0,NE,4.6,-,N/A,,Clear,40,2013-09-04 18:56:00
12:56 PM,81.0,48.9,33,29.98,10.0,Variable,3.5,-,N/A,,Clear,0,2013-09-04 19:56:00
1:56 PM,82.9,46.0,27,29.97,10.0,NNW,10.4,-,N/A,,Clear,330,2013-09-04 20:56:00
2:56 PM,82.9,51.1,33,29.96,10.0,NNW,12.7,-,N/A,,Clear,330,2013-09-04 21:56:00
3:56 PM,82.0,50.0,33,29.95,10.0,WNW,11.5,17.3,N/A,,Clear,300,2013-09-04 22:56:00
4:56 PM,81.0,48.9,33,29.94,10.0,NW,10.4,-,N/A,,Clear,310,2013-09-04 23:56:00
5:56 PM,77.0,48.0,36,29.94,10.0,WNW,9.2,-,N/A,,Clear,300,2013-09-05 00:56:00
6:56 PM,72.0,50.0,46,29.95,10.0,NNE,5.8,-,N/A,,Clear,20,2013-09-05 01:56:00
7:56 PM,69.1,53.1,57,29.97,10.0,North,8.1,-,N/A,,Clear,350,2013-09-05 02:56:00
8:56 PM,66.9,52.0,59,29.97,10.0,North,8.1,-,N/A,,Clear,360,2013-09-05 03:56:00
9:56 PM,64.9,52.0,63,29.98,10.0,North,6.9,-,N/A,,Clear,10,2013-09-05 04:56:00
10:56 PM,64.0,53.1,67,29.98,10.0,NNE,6.9,-,N/A,,Clear,20,2013-09-05 05:56:00
11:56 PM,62.1,54.0,75,29.97,10.0,NNE,4.6,-,N/A,,Clear,20,2013-09-05 06:56:00